Regional Weather Roundup
Issued by NWS

Home | Current Version | Previous Version | Graphics & Text | Print | Product List | Glossary Off
Versions: 1 2 3 4 5 6 7 8 9 10 11 12 13 14 15 16 17 18 19 20 21 22 23 24 25 26 27 28 29 30 31 32 33 34 35 36 37 38 39 40 41 42 43 44 45 46 47 48 49 50

000
ASUS43 KMKX 012021
RWRWI

WISCONSIN REGIONAL WEATHER ROUNDUP
NATIONAL WEATHER SERVICE MILWAUKEE/SULLIVAN WI
300 PM CDT SUN MAY 01 2016

NOTE: "FAIR" INDICATES FEW OR NO CLOUDS BELOW 12,000 FEET WITH NO
SIGNIFICANT WEATHER AND/OR OBSTRUCTIONS TO VISIBILITY.

WIZ001-002-006>008-014>016-023>028-012100-
NORTHWEST WISCONSIN

CITY           SKY/WX    TMP DP  RH WIND       PRES   REMARKS
SUPERIOR ARPT  SUNNY     48  37  66 NE10      30.21F
ASHLAND        SUNNY     51  39  63 NE13      30.20F
HAYWARD        SUNNY     58  34  40 NE16G22   30.13F
SIREN          SUNNY     60  30  31 E12G21    30.13S
CUMBERLAND     SUNNY     57  32  38 E6        30.11F
RICE LAKE      PTSUNNY   60  31  33 NE12      30.11F
CHETEK         PTSUNNY   61  35  36 NE9       30.09F
LADYSMITH      MOSUNNY   64  32  31 NE5G18    30.10F
EAU CLAIRE     PTSUNNY   63  30  28 E8G18     30.06F
MENOMONIE      PTSUNNY   63  32  31 NE10G16   30.08F
NEW RICHMOND   MOSUNNY   61  32  33 NE13G20   30.11S
OSCEOLA        MOSUNNY   61  35  37 NE15G22   30.13F
$$

WIZ003>005-009-010-017-018-012100-
NORTH CENTRAL WISCONSIN

CITY           SKY/WX    TMP DP  RH WIND       PRES   REMARKS
MANITOWISH WTR CLOUDY    57  32  38 NE8G16    30.11F
ARBOR VITAE    CLOUDY    59  30  32 NE5       30.09F
WOODRUFF       CLOUDY    59  30  32 NE5       30.09F
RHINELANDER    CLOUDY    60  28  29 VRB7      30.08F
EAGLE RIVER    CLOUDY    59  25  27 E9        30.09F
LAND O LAKES   CLOUDY    60  30  32 NE9       30.11F
PHILLIPS       MOSUNNY   59  32  35 E9        30.09S
TOMAHAWK       PTSUNNY   62  28  27 E8G16     30.07F
MEDFORD        CLOUDY    59  32  36 NE10      30.06F
MERRILL        PTSUNNY   61  30  30 E14       30.07S
$$

WIZ029-030-035-036-043>047-012100-
CENTRAL WISCONSIN

CITY           SKY/WX    TMP DP  RH WIND       PRES   REMARKS
WAUSAU         CLOUDY    62  30  29 E12       30.04F
MOSINEE        MOSUNNY   61  30  31 E10G17    30.07F
MARSHFIELD     CLOUDY    58  29  33 E14       30.06F
STEVENS POINT  CLOUDY    56  30  37 E12       30.07F
WAUPACA        CLOUDY    60  30  31 NE15G23   30.08F
WAUTOMA        CLOUDY    58  34  40 E18G25    30.06R
WISC RAPIDS    CLOUDY    59  29  31 E12G21    30.08F
CAMP DOUGLAS   PTSUNNY   57  46  67 NE12G20   30.05F
$$

WIZ011>013-019>022-031-037>040-048>050-012100-
NORTHEAST WISCONSIN

CITY           SKY/WX    TMP DP  RH WIND       PRES   REMARKS
ANTIGO         CLOUDY    60  32  35 E8        30.07F
SHAWANO        SUNNY     59  35  39 E12       30.09F
OCONTO         SUNNY     56  37  49 NE12      30.11S
STURGEON BAY   SUNNY     54  36  50 E15G22    30.13S
GREEN BAY      PTSUNNY   57  41  55 NE18      30.09S
MANITOWOC      SUNNY     53  38  56 MISG      30.07F
APPLETON       PTSUNNY   55  36  47 NE15G21   30.06S
CLINTONVILLE   MOSUNNY   57  32  38 E9G18     30.08F
OSHKOSH        MOSUNNY   57  42  57 NE13G22   30.05F
$$

WIZ032>034-041-042-053>061-012100-
SOUTHWEST WISCONSIN

CITY           SKY/WX    TMP DP  RH WIND       PRES   REMARKS
LA CROSSE      CLOUDY    56  38  50 NE8       30.06F
SPARTA         CLOUDY    56  40  55 NE9G16    30.06F
VIROQUA        CLOUDY    51  41  69 NE7       30.05S
BOSCOBEL       CLOUDY    53  42  66 NE7       30.05S
PRAIRIE DU CHI CLOUDY    51  41  69 NE6       30.04S
PLATTEVILLE    CLOUDY    52  46  80 NE14G20   30.02R
$$

WIZ056-057-062-063-064-067-068-012100-
SOUTH CENTRAL WISCONSIN

CITY           SKY/WX    TMP DP  RH WIND       PRES   REMARKS
REEDSBURG      CLOUDY    55  42  63 NE10      30.04S
BARABOO/DELLS  CLOUDY    56  37  50 E14G26    30.03F
LONE ROCK      CLOUDY    54  43  66 N5        30.04F
MINERAL POINT  CLOUDY    52  45  76 NE15      30.02S
MADISON        PTSUNNY   58  43  57 NE14      30.01F
MIDDLETON      CLOUDY    57  45  65 NE10      30.02F
WATERTOWN      PTSUNNY   56  42  59 NE12G20   30.01F
MONROE         CLOUDY    52  45  76 N12       30.01R
JANESVILLE     CLOUDY    55  45  67 E14G20    30.00S
$$

WIZ051-052-058>065-066-070>072-012100-
SOUTHEAST WISCONSIN

CITY           SKY/WX    TMP DP  RH WIND       PRES   REMARKS
MILWAUKEE      CLOUDY    46  40  79 NE16      30.03F
WAUKESHA       MOSUNNY   54  39  58 NE12G23   30.03S
MILWAUKEE/TIMM CLOUDY    50  37  62 NE15G22   30.04S
RACINE         CLOUDY    45  39  79 N12G20    30.04S
BURLINGTON     CLOUDY    49  43  78 E9        30.02S
KENOSHA        CLOUDY    48  42  80 NE14      30.03R
FOND DU LAC    MOSUNNY   59  40  49 E23       30.04F
SHEBOYGAN      SUNNY     53  40  61 NE24G32   30.05F
WEST BEND      CLOUDY    54  41  62 NE18G25   30.03S
JUNEAU         CLOUDY    57  40  54 NE18G28   30.02F
$$

LSZ147-162-012100-
LAKE SUPERIOR

STATION/POSITION TIME  TEMP    WIND        PRES    WAVE
                       AIR SEA DIR/SP/G            HT/PER
                 (UTC) (F)     (DEG/KT/KT) (MB)    (FT/S)
W MID LAKE BUOY  1950   38 37   40/  6/  6 1023.8F   3/ 5
DEVILS ISLAND    2000   39      50/  8/  9 1024.0F
SAXON HARBOR     1900   40      20/  7/  9 1022.7F
$$

LMZ867-665-643>646-012100-
LAKE MICHIGAN

STATION/POSITION TIME  TEMP    WIND        PRES    WAVE
                       AIR SEA DIR/SP/G            HT/PER
                 (UTC) (F)     (DEG/KT/KT) (MB)    (FT/S)
CHAMBERS ISLAND  1900   45      20/ 11/ 12 1020.3S
N MID LAKE BUOY  1950   41 39   10/  8/  8 1020.1F   1
NORTHPORT PIER   1900   44      70/ 10/ 11 1020.3S
KEWAUNEE LAKESHO 2000   47      30/ 13/ 18 1018.1F
SHEBOYGAN LAKESH 2000   44      20/ 20/ 22 1018.3F
PORT WASHINGTON  1900   49      40/ 18/ 21 1018.3
S MID LAKE BUOY  1950   42 40   20/ 10/ 12 1016.3R   2/ 6
KENOSHA   LAKESH 2000   44      20/ 16/ 19 1016.9R
$$

TC  - TEMPERATURE IN CELSIUS
VSB - VISIBILITY IN STATUTE MILES
WCI - WIND CHILL INDEX
HX  - HEAT INDEX





USA.gov is the U.S. government's official web portal to all federal, state and local government web resources and services.